カタログに戻る

SL-16 R/B

運用中LEO
NORAD 26070·ROCKET BODY·🇷🇺 Russia

打ち上げ Feb 3, 2000 から Baikonur Cosmodrome

Loading…

次のパス (今後24時間)

TLE

最新Source: Space-Track

元期: Sep 14, 2026, 10:30 UTC

1 26070U 00006B   26257.43796844 -.00000011  00000-0  18655-4 0  9990
2 26070  71.0013  60.9569 0018693 255.9735 103.9310 14.15843084375276

AllMySatでSL-16 R/Bをリアルタイム追跡

Download on the App Store